WJA3401 CYQR-CYWG

Flight info

Callsign WJA3401
Flight time 0h 50m
Altitude 33000
Route ILUKI DCT DARUK DCT SEGAP BEFAN5
Aircraft B738/M-SDE2E3FGHIRWXY/LB1

Departure

Time 2026-04-21 02:52
Airport Regina International Airport (CYQR)

Arrival

Time 2026-04-21 03:42
Airport Winnipeg / James Armstrong Richardson International Airport (CYWG)
Time Latitude Longitude Altitude Speed Heading
2026-04-21 02:24 50.43327 -104.65713 1889 ft 0 kts 48°
2026-04-21 02:43 50.43326 -104.65715 1885 ft 1 kts 48°
2026-04-21 02:43 50.43315 -104.65734 1886 ft 3 kts 45°
2026-04-21 02:43 50.43300 -104.65756 1887 ft 3 kts 40°
2026-04-21 02:43 50.43284 -104.65775 1885 ft 3 kts 30°
2026-04-21 02:44 50.43267 -104.65788 1887 ft 3 kts
2026-04-21 02:44 50.43253 -104.65786 1896 ft 2 kts 321°
2026-04-21 02:44 50.43251 -104.65783 1895 ft 1 kts 318°
2026-04-21 02:45 50.43251 -104.65784 1895 ft 0 kts 318°
2026-04-21 02:47 50.43270 -104.65810 1888 ft 9 kts 318°
2026-04-21 02:47 50.43348 -104.65921 1894 ft 19 kts 317°
2026-04-21 02:47 50.43449 -104.66063 1889 ft 19 kts 318°
2026-04-21 02:48 50.43547 -104.66201 1893 ft 19 kts 318°
2026-04-21 02:48 50.43641 -104.66336 1893 ft 18 kts 317°
2026-04-21 02:48 50.43733 -104.66464 1889 ft 17 kts 320°
2026-04-21 02:48 50.43821 -104.66588 1890 ft 17 kts 317°
2026-04-21 02:49 50.43906 -104.66710 1884 ft 16 kts 318°
2026-04-21 02:49 50.43988 -104.66826 1888 ft 16 kts 318°
2026-04-21 02:49 50.44041 -104.66949 1889 ft 11 kts 284°
2026-04-21 02:49 50.44046 -104.67018 1896 ft 3 kts 272°
2026-04-21 02:50 50.44046 -104.67038 1896 ft 3 kts 272°
2026-04-21 02:50 50.44047 -104.67076 1896 ft 3 kts 270°
2026-04-21 02:50 50.44044 -104.67127 1894 ft 8 kts 253°
2026-04-21 02:50 50.43994 -104.67189 1893 ft 8 kts 173°
2026-04-21 02:51 50.43976 -104.67173 1891 ft 0 kts 138°
2026-04-21 02:51 50.43838 -104.66979 1893 ft 61 kts 138°
2026-04-21 02:51 50.43351 -104.66292 1896 ft 125 kts 137°
2026-04-21 02:51 50.42567 -104.65188 1962 ft 172 kts 138°
2026-04-21 02:52 50.41692 -104.63925 2742 ft 168 kts 137°
2026-04-21 02:52 50.40834 -104.62647 3492 ft 176 kts 139°
2026-04-21 02:52 50.39903 -104.61290 3973 ft 197 kts 140°
2026-04-21 02:52 50.38809 -104.59771 4197 ft 221 kts 141°
2026-04-21 02:53 50.37601 -104.58128 4497 ft 240 kts 142°
2026-04-21 02:53 50.36288 -104.56382 4766 ft 261 kts 142°
2026-04-21 02:53 50.34863 -104.54389 5050 ft 283 kts 134°
2026-04-21 02:53 50.33908 -104.51673 5820 ft 290 kts 100°
2026-04-21 02:54 50.33943 -104.48549 6717 ft 288 kts 79°
2026-04-21 02:54 50.34248 -104.45415 7441 ft 295 kts 78°
2026-04-21 02:54 50.34566 -104.42207 8199 ft 301 kts 77°
2026-04-21 02:54 50.34884 -104.38937 8964 ft 307 kts 77°
2026-04-21 02:55 50.35199 -104.35597 9694 ft 314 kts 77°
2026-04-21 02:55 50.35511 -104.32182 10371 ft 321 kts 77°
2026-04-21 02:55 50.35835 -104.28597 10604 ft 345 kts 78°
2026-04-21 02:55 50.36174 -104.24767 10976 ft 362 kts 78°
2026-04-21 02:56 50.36513 -104.20824 11654 ft 368 kts 78°
2026-04-21 02:56 50.37186 -104.12804 13196 ft 375 kts 78°
2026-04-21 02:56 50.37524 -104.08730 13900 ft 380 kts 79°
2026-04-21 02:57 50.37866 -104.04603 14528 ft 384 kts 79°
2026-04-21 02:57 50.38211 -104.00420 15161 ft 389 kts 79°
2026-04-21 02:57 50.38558 -103.96196 15814 ft 393 kts 80°
2026-04-21 02:57 50.38908 -103.91920 16439 ft 398 kts 80°
2026-04-21 02:58 50.39255 -103.87654 17058 ft 402 kts 80°
2026-04-21 02:58 50.39614 -103.83225 17687 ft 407 kts 80°
2026-04-21 02:58 50.39971 -103.78808 18296 ft 411 kts 80°
2026-04-21 02:58 50.40208 -103.75853 18647 ft 414 kts 80°
2026-04-21 02:59 50.40568 -103.71354 19206 ft 417 kts 80°
2026-04-21 02:59 50.40928 -103.66837 19779 ft 420 kts 80°
2026-04-21 02:59 50.41406 -103.60793 20516 ft 424 kts 81°
2026-04-21 02:59 50.41651 -103.57690 20875 ft 426 kts 81°
2026-04-21 03:00 50.42014 -103.53064 21404 ft 429 kts 80°
2026-04-21 03:00 50.42379 -103.48396 21924 ft 433 kts 81°
2026-04-21 03:00 50.42744 -103.43690 22449 ft 436 kts 81°
2026-04-21 03:00 50.43110 -103.38951 22966 ft 439 kts 81°
2026-04-21 03:01 50.43477 -103.34182 23472 ft 442 kts 81°
2026-04-21 03:01 50.43844 -103.29373 23900 ft 445 kts 81°
2026-04-21 03:01 50.44211 -103.24538 24320 ft 448 kts 81°
2026-04-21 03:01 50.44580 -103.19661 24729 ft 451 kts 81°
2026-04-21 03:02 50.44948 -103.14760 25127 ft 454 kts 81°
2026-04-21 03:02 50.45316 -103.09828 25503 ft 457 kts 81°
2026-04-21 03:02 50.45686 -103.04847 25922 ft 459 kts 81°
2026-04-21 03:02 50.46048 -102.99935 26375 ft 460 kts 81°
2026-04-21 03:03 50.46415 -102.94935 26760 ft 463 kts 81°
2026-04-21 03:03 50.46783 -102.89899 27094 ft 466 kts 81°
2026-04-21 03:03 50.47151 -102.84824 27443 ft 469 kts 81°
2026-04-21 03:03 50.47518 -102.79722 27803 ft 472 kts 81°
2026-04-21 03:04 50.47886 -102.74586 28164 ft 474 kts 81°
2026-04-21 03:04 50.48253 -102.69429 28509 ft 477 kts 81°
2026-04-21 03:04 50.48620 -102.64244 28839 ft 480 kts 81°
2026-04-21 03:04 50.48987 -102.59024 29204 ft 482 kts 82°
2026-04-21 03:05 50.49346 -102.53804 29706 ft 480 kts 83°
2026-04-21 03:05 50.49387 -102.48562 30165 ft 481 kts 93°
2026-04-21 03:05 50.48928 -102.43377 30574 ft 480 kts 102°
2026-04-21 03:05 50.47984 -102.38361 30947 ft 479 kts 109°
2026-04-21 03:06 50.46876 -102.33426 31305 ft 479 kts 110°
2026-04-21 03:06 50.45748 -102.28524 31646 ft 478 kts 110°
2026-04-21 03:06 50.44619 -102.23616 32017 ft 477 kts 110°
2026-04-21 03:06 50.43503 -102.18721 32403 ft 476 kts 110°
2026-04-21 03:07 50.42398 -102.13830 32771 ft 475 kts 110°
2026-04-21 03:07 50.41300 -102.08944 33022 ft 477 kts 110°
2026-04-21 03:07 50.39092 -101.99076 32988 ft 480 kts 110°
2026-04-21 03:08 50.36899 -101.89299 32975 ft 472 kts 110°
2026-04-21 03:08 50.34710 -101.79595 32994 ft 473 kts 110°
2026-04-21 03:09 50.32505 -101.69873 32990 ft 474 kts 110°
2026-04-21 03:09 50.30289 -101.60145 32990 ft 475 kts 110°
2026-04-21 03:10 50.28059 -101.50402 32983 ft 476 kts 110°
2026-04-21 03:10 50.25818 -101.40656 32988 ft 477 kts 110°
2026-04-21 03:11 50.23566 -101.30909 32989 ft 477 kts 110°
2026-04-21 03:11 50.21307 -101.21169 32986 ft 477 kts 110°
2026-04-21 03:12 50.19039 -101.11441 32983 ft 477 kts 110°
2026-04-21 03:12 50.16780 -101.01791 32985 ft 477 kts 110°
2026-04-21 03:13 50.14498 -100.92090 32982 ft 476 kts 110°
2026-04-21 03:13 50.12212 -100.82415 32967 ft 471 kts 110°
2026-04-21 03:14 50.11092 -100.77690 32956 ft 459 kts 110°
2026-04-21 03:14 50.09993 -100.73064 32970 ft 451 kts 110°
2026-04-21 03:14 50.08917 -100.68544 32952 ft 439 kts 110°
2026-04-21 03:14 50.07871 -100.64159 32960 ft 426 kts 110°
2026-04-21 03:15 50.06852 -100.59898 32950 ft 413 kts 110°
2026-04-21 03:15 50.05859 -100.55748 32970 ft 408 kts 110°
2026-04-21 03:15 50.03842 -100.47351 32997 ft 422 kts 110°
2026-04-21 03:16 50.01780 -100.38795 32379 ft 424 kts 110°
2026-04-21 03:16 50.00729 -100.34447 31564 ft 435 kts 110°
2026-04-21 03:16 49.99654 -100.30012 30897 ft 441 kts 110°
2026-04-21 03:17 49.98571 -100.25549 30480 ft 440 kts 110°
2026-04-21 03:17 49.97494 -100.21124 30192 ft 436 kts 110°
2026-04-21 03:17 49.96427 -100.16743 29860 ft 431 kts 110°
2026-04-21 03:17 49.95369 -100.12412 29471 ft 428 kts 110°
2026-04-21 03:18 49.94314 -100.08099 29042 ft 426 kts 110°
2026-04-21 03:18 49.93267 -100.03824 28628 ft 424 kts 110°
2026-04-21 03:18 49.92220 -99.99560 28209 ft 422 kts 110°
2026-04-21 03:18 49.91193 -99.95315 27751 ft 419 kts 107°
2026-04-21 03:19 49.90510 -99.86275 26944 ft 411 kts 91°
2026-04-21 03:19 49.90343 -99.81866 26559 ft 409 kts 91°
2026-04-21 03:19 49.90168 -99.77470 26171 ft 408 kts 91°
2026-04-21 03:20 49.89982 -99.73089 25804 ft 406 kts 91°
2026-04-21 03:20 49.89787 -99.68694 25163 ft 412 kts 92°
2026-04-21 03:20 49.89582 -99.64233 24620 ft 416 kts 92°
2026-04-21 03:20 49.89370 -99.59758 24254 ft 414 kts 92°
2026-04-21 03:21 49.89155 -99.55331 23934 ft 411 kts 91°
2026-04-21 03:21 49.88937 -99.50870 23226 ft 419 kts 92°
2026-04-21 03:21 49.88716 -99.46358 22650 ft 420 kts 92°
2026-04-21 03:21 49.88492 -99.41866 22289 ft 416 kts 92°
2026-04-21 03:22 49.88268 -99.37396 21663 ft 418 kts 92°
2026-04-21 03:22 49.88041 -99.32883 21064 ft 421 kts 92°
2026-04-21 03:22 49.87812 -99.28378 20631 ft 418 kts 92°
2026-04-21 03:22 49.87582 -99.23912 20268 ft 413 kts 92°
2026-04-21 03:23 49.87353 -99.19489 19880 ft 410 kts 92°
2026-04-21 03:23 49.87125 -99.15095 19474 ft 408 kts 92°
2026-04-21 03:23 49.86896 -99.10726 19073 ft 405 kts 92°
2026-04-21 03:23 49.86667 -99.06388 18686 ft 403 kts 92°
2026-04-21 03:24 49.86439 -99.02080 18313 ft 400 kts 92°
2026-04-21 03:24 49.86210 -98.97797 17897 ft 397 kts 92°
2026-04-21 03:24 49.85981 -98.93545 17473 ft 395 kts 92°
2026-04-21 03:24 49.85753 -98.89330 17112 ft 391 kts 92°
2026-04-21 03:25 49.85524 -98.85144 16741 ft 389 kts 93°
2026-04-21 03:25 49.85299 -98.81037 16400 ft 387 kts 93°
2026-04-21 03:25 49.85070 -98.76894 16047 ft 385 kts 93°
2026-04-21 03:25 49.84841 -98.72771 15704 ft 383 kts 93°
2026-04-21 03:26 49.84611 -98.68665 15345 ft 382 kts 93°
2026-04-21 03:26 49.84380 -98.64571 14987 ft 381 kts 93°
2026-04-21 03:26 49.84149 -98.60496 14642 ft 380 kts 93°
2026-04-21 03:26 49.83917 -98.56426 14297 ft 378 kts 93°
2026-04-21 03:27 49.83685 -98.52373 13943 ft 377 kts 93°
2026-04-21 03:27 49.83451 -98.48333 13565 ft 376 kts 94°
2026-04-21 03:27 49.83218 -98.44317 13179 ft 373 kts 94°
2026-04-21 03:27 49.82986 -98.40369 12811 ft 364 kts 93°
2026-04-21 03:28 49.82759 -98.36514 12467 ft 355 kts 94°
2026-04-21 03:28 49.82535 -98.32742 12135 ft 348 kts 93°
2026-04-21 03:28 49.82316 -98.29058 11813 ft 340 kts 93°
2026-04-21 03:28 49.82100 -98.25444 11497 ft 333 kts 93°
2026-04-21 03:29 49.81888 -98.21905 11189 ft 328 kts 93°
2026-04-21 03:29 49.81676 -98.18397 10892 ft 327 kts 93°
2026-04-21 03:29 49.81465 -98.14901 10600 ft 325 kts 93°
2026-04-21 03:29 49.81253 -98.11422 10299 ft 324 kts 93°
2026-04-21 03:30 49.81043 -98.07981 10148 ft 317 kts 93°
2026-04-21 03:30 49.80836 -98.04612 9956 ft 313 kts 93°
2026-04-21 03:30 49.80628 -98.01268 9654 ft 312 kts 93°
2026-04-21 03:30 49.80401 -97.97937 9371 ft 310 kts 94°
2026-04-21 03:31 49.80151 -97.94643 9114 ft 307 kts 94°
2026-04-21 03:31 49.79898 -97.91376 8848 ft 304 kts 94°
2026-04-21 03:31 49.79647 -97.88144 8605 ft 301 kts 94°
2026-04-21 03:31 49.79399 -97.84938 8345 ft 298 kts 94°
2026-04-21 03:32 49.79154 -97.81765 8091 ft 296 kts 94°
2026-04-21 03:32 49.78911 -97.78611 7838 ft 294 kts 94°
2026-04-21 03:32 49.78670 -97.75484 7581 ft 292 kts 94°
2026-04-21 03:32 49.78430 -97.72380 7337 ft 289 kts 94°
2026-04-21 03:33 49.78192 -97.69299 7100 ft 287 kts 94°
2026-04-21 03:33 49.77954 -97.66240 6858 ft 285 kts 94°
2026-04-21 03:33 49.77798 -97.64225 6697 ft 284 kts 94°
2026-04-21 03:33 49.77166 -97.60318 6344 ft 287 kts 119°
2026-04-21 03:34 49.75865 -97.58013 6114 ft 284 kts 140°
2026-04-21 03:34 49.74340 -97.56111 5868 ft 278 kts 142°
2026-04-21 03:34 49.72855 -97.54323 5772 ft 264 kts 143°
2026-04-21 03:34 49.71439 -97.52622 5634 ft 252 kts 143°
2026-04-21 03:35 49.70075 -97.50978 5376 ft 246 kts 143°
2026-04-21 03:35 49.68735 -97.49358 5045 ft 244 kts 143°
2026-04-21 03:35 49.67544 -97.47527 4700 ft 242 kts 120°
2026-04-21 03:35 49.67036 -97.45087 4342 ft 238 kts 95°
2026-04-21 03:36 49.66843 -97.42575 4030 ft 235 kts 93°
2026-04-21 03:36 49.66703 -97.40073 3677 ft 232 kts 83°
2026-04-21 03:36 49.67153 -97.37780 3300 ft 220 kts 49°
2026-04-21 03:36 49.68219 -97.36201 3068 ft 211 kts 33°
2026-04-21 03:37 49.69386 -97.34804 3042 ft 214 kts 33°
2026-04-21 03:37 49.70551 -97.33412 3020 ft 208 kts 33°
2026-04-21 03:37 49.71665 -97.32075 3009 ft 199 kts 33°
2026-04-21 03:37 49.72746 -97.30775 3015 ft 196 kts 33°
2026-04-21 03:38 49.73830 -97.29468 3011 ft 198 kts 33°
2026-04-21 03:38 49.74923 -97.28157 2996 ft 199 kts 32°
2026-04-21 03:38 49.76130 -97.27298 2996 ft 185 kts
2026-04-21 03:38 49.77344 -97.27091 2973 ft 166 kts
2026-04-21 03:39 49.78437 -97.26786 2966 ft 157 kts
2026-04-21 03:39 49.79512 -97.26518 2809 ft 155 kts
2026-04-21 03:39 49.80568 -97.26268 2596 ft 153 kts
2026-04-21 03:39 49.81603 -97.26026 2398 ft 146 kts
2026-04-21 03:40 49.82251 -97.25875 2286 ft 138 kts
2026-04-21 03:40 49.83206 -97.25655 2076 ft 137 kts
2026-04-21 03:40 49.84135 -97.25438 1884 ft 132 kts
2026-04-21 03:40 49.85045 -97.25226 1712 ft 133 kts
2026-04-21 03:41 49.85977 -97.25010 1524 ft 139 kts
2026-04-21 03:41 49.86946 -97.24784 1325 ft 141 kts
2026-04-21 03:41 49.87912 -97.24560 1142 ft 140 kts
2026-04-21 03:41 49.88875 -97.24340 981 ft 138 kts
2026-04-21 03:42 49.89802 -97.24114 799 ft 130 kts
2026-04-21 03:42 49.90604 -97.23942 787 ft 97 kts
2026-04-21 03:42 49.91131 -97.23819 781 ft 61 kts
2026-04-21 03:42 49.91417 -97.23694 781 ft 30 kts 36°
2026-04-21 03:43 49.91521 -97.23564 781 ft 16 kts 40°
2026-04-21 03:43 49.91566 -97.23456 782 ft 7 kts 82°
2026-04-21 03:43 49.91541 -97.23407 784 ft 7 kts 174°
2026-04-21 03:43 49.91493 -97.23412 785 ft 7 kts 189°
2026-04-21 03:44 49.91442 -97.23426 785 ft 9 kts 189°
2026-04-21 03:44 49.91373 -97.23442 785 ft 10 kts 188°
2026-04-21 03:44 49.91300 -97.23458 785 ft 12 kts 188°
2026-04-21 03:44 49.91205 -97.23481 786 ft 16 kts 189°
2026-04-21 03:45 49.91094 -97.23501 783 ft 16 kts 175°
2026-04-21 03:45 49.90993 -97.23446 781 ft 15 kts 154°
2026-04-21 03:45 49.90902 -97.23380 781 ft 9 kts 155°
2026-04-21 03:45 49.90868 -97.23313 781 ft 8 kts 100°
2026-04-21 03:46 49.90872 -97.23224 781 ft 9 kts 84°
2026-04-21 03:46 49.90879 -97.23115 781 ft 11 kts 84°
2026-04-21 03:46 49.90887 -97.22993 781 ft 11 kts 84°
2026-04-21 03:46 49.90889 -97.22876 782 ft 11 kts 102°
2026-04-21 03:47 49.90876 -97.22819 782 ft 1 kts 118°
2026-04-21 03:47 49.90866 -97.22800 782 ft 4 kts 129°
2026-04-21 03:47 49.90846 -97.22759 783 ft 7 kts 128°
2026-04-21 03:47 49.90806 -97.22680 782 ft 12 kts 129°
2026-04-21 03:48 49.90759 -97.22592 781 ft 5 kts 144°
2026-04-21 03:48 49.90727 -97.22570 782 ft 5 kts 166°
2026-04-21 03:48 49.90692 -97.22561 783 ft 5 kts 172°
2026-04-21 03:48 49.90682 -97.22559 783 ft 0 kts 172°